Time,TemperatureF,DewpointF,PressureIn,WindDirection,WindDirectionDegrees,WindSpeedMPH,WindSpeedGustMPH,Humidity,HourlyPrecipIn,Conditions,Clouds,dailyrainin,SoftwareType,DateUTC
2013-05-08 00:02:00,60.4,46.4,29.86,SSW,197,0.0,0.0,60,0.00,,,0.00,Wunderground v.1.15,2013-05-08 05:02:00,
2013-05-08 00:07:00,60.2,46.3,29.86,SSW,197,0.0,0.0,60,0.00,,,0.00,Wunderground v.1.15,2013-05-08 05:07:00,
2013-05-08 00:12:00,60.2,46.3,29.86,SSW,197,0.0,0.0,60,0.00,,,0.00,Wunderground v.1.15,2013-05-08 05:12:00,
2013-05-08 00:17:00,60.2,46.7,29.86,SSW,197,0.0,0.0,61,0.00,,,0.00,Wunderground v.1.15,2013-05-08 05:17:00,
2013-05-08 00:23:00,60.1,47.0,29.86,SSW,197,0.0,0.0,62,0.00,,,0.00,Wunderground v.1.15,2013-05-08 05:23:00,
2013-05-08 00:28:00,59.9,46.8,29.86,SSW,197,0.0,0.0,62,0.00,,,0.00,Wunderground v.1.15,2013-05-08 05:28:00,
2013-05-08 00:33:00,59.9,46.8,29.85,SSW,197,0.0,0.0,62,0.00,,,0.00,Wunderground v.1.15,2013-05-08 05:33:00,
2013-05-08 00:38:00,59.8,47.2,29.85,SSW,197,0.0,0.0,63,0.00,,,0.00,Wunderground v.1.15,2013-05-08 05:38:00,
2013-05-08 00:43:00,59.9,47.7,29.85,SSW,197,0.0,0.0,64,0.00,,,0.00,Wunderground v.1.15,2013-05-08 05:43:00,
2013-05-08 00:49:00,60.1,47.9,29.85,SSW,197,0.0,0.0,64,0.00,,,0.00,Wunderground v.1.15,2013-05-08 05:49:00,
2013-05-08 00:54:00,60.2,48.0,29.85,SSW,197,0.0,0.0,64,0.00,,,0.00,Wunderground v.1.15,2013-05-08 05:54:00,
2013-05-08 00:59:00,60.5,48.3,29.85,SSW,197,0.0,1.0,64,0.00,,,0.00,Wunderground v.1.15,2013-05-08 05:59:00,
2013-05-08 01:04:00,60.7,48.4,29.84,SSW,197,0.0,0.0,64,0.00,,,0.00,Wunderground v.1.15,2013-05-08 06:04:00,
2013-05-08 01:09:00,61.2,48.5,29.84,SSW,197,1.0,3.0,63,0.00,,,0.00,Wunderground v.1.15,2013-05-08 06:09:00,
2013-05-08 01:14:00,61.5,48.4,29.84,SSW,195,3.0,3.0,62,0.00,,,0.00,Wunderground v.1.15,2013-05-08 06:14:00,
2013-05-08 01:20:00,61.8,48.2,29.84,SSE,152,3.0,3.0,61,0.00,,,0.00,Wunderground v.1.15,2013-05-08 06:20:00,
2013-05-08 01:25:00,61.8,48.6,29.84,SSE,165,2.0,3.0,62,0.00,,,0.00,Wunderground v.1.15,2013-05-08 06:25:00,
2013-05-08 01:30:00,61.6,48.9,29.85,SSE,165,0.0,3.0,63,0.00,,,0.00,Wunderground v.1.15,2013-05-08 06:30:00,
2013-05-08 01:35:00,61.3,48.6,29.85,SSE,165,0.0,3.0,63,0.00,,,0.00,Wunderground v.1.15,2013-05-08 06:35:00,
2013-05-08 01:40:00,61.2,48.9,29.85,SSE,165,0.0,2.0,64,0.00,,,0.00,Wunderground v.1.15,2013-05-08 06:40:00,
2013-05-08 01:46:00,60.9,49.1,29.85,SSE,165,2.0,2.0,65,0.00,,,0.00,Wunderground v.1.15,2013-05-08 06:46:00,
2013-05-08 01:51:00,60.5,48.7,29.85,SSE,165,0.0,1.0,65,0.00,,,0.00,Wunderground v.1.15,2013-05-08 06:51:00,
2013-05-08 01:56:00,60.4,48.6,29.85,SSE,165,0.0,2.0,65,0.00,,,0.00,Wunderground v.1.15,2013-05-08 06:56:00,
2013-05-08 02:01:00,60.2,48.8,29.85,SSE,165,2.0,2.0,66,0.00,,,0.00,Wunderground v.1.15,2013-05-08 07:01:00,
2013-05-08 02:06:00,60.2,48.8,29.85,SSE,165,0.0,2.0,66,0.00,,,0.00,Wunderground v.1.15,2013-05-08 07:06:00,
2013-05-08 02:11:00,60.1,48.7,29.85,SSE,165,2.0,2.0,66,0.00,,,0.00,Wunderground v.1.15,2013-05-08 07:11:00,
2013-05-08 02:16:00,60.1,48.7,29.84,SSE,165,0.0,2.0,66,0.00,,,0.00,Wunderground v.1.15,2013-05-08 07:16:00,
2013-05-08 02:21:00,59.9,48.9,29.84,SSE,165,0.0,0.0,67,0.00,,,0.00,Wunderground v.1.15,2013-05-08 07:21:00,
2013-05-08 02:26:00,59.8,48.8,29.84,SSE,165,0.0,0.0,67,0.00,,,0.00,Wunderground v.1.15,2013-05-08 07:26:00,
2013-05-08 02:31:00,59.6,48.6,29.84,SSE,165,0.0,0.0,67,0.00,,,0.00,Wunderground v.1.15,2013-05-08 07:31:00,
2013-05-08 02:36:00,59.5,48.5,29.84,SSE,165,0.0,0.0,67,0.00,,,0.00,Wunderground v.1.15,2013-05-08 07:36:00,
2013-05-08 02:41:00,59.5,48.9,29.84,SSE,165,0.0,4.0,68,0.00,,,0.00,Wunderground v.1.15,2013-05-08 07:41:00,
2013-05-08 02:46:00,59.3,48.7,29.85,South,186,2.0,6.0,68,0.00,,,0.00,Wunderground v.1.15,2013-05-08 07:46:00,
2013-05-08 02:51:00,59.2,48.6,29.85,South,186,3.0,3.0,68,0.00,,,0.00,Wunderground v.1.15,2013-05-08 07:51:00,
2013-05-08 02:57:00,59.0,48.4,29.85,South,186,0.0,5.0,68,0.00,,,0.00,Wunderground v.1.15,2013-05-08 07:57:00,
2013-05-08 03:02:00,59.0,48.4,29.84,South,186,0.0,1.0,68,0.00,,,0.00,Wunderground v.1.15,2013-05-08 08:02:00,
2013-05-08 03:07:00,59.0,48.4,29.84,South,186,0.0,3.0,68,0.00,,,0.00,Wunderground v.1.15,2013-05-08 08:07:00,
2013-05-08 03:12:00,59.0,48.8,29.84,South,186,0.0,4.0,69,0.00,,,0.00,Wunderground v.1.15,2013-05-08 08:12:00,
2013-05-08 03:17:00,58.9,48.7,29.84,South,186,0.0,4.0,69,0.00,,,0.00,Wunderground v.1.15,2013-05-08 08:17:00,
2013-05-08 03:22:00,58.7,48.6,29.84,South,186,0.0,1.0,69,0.00,,,0.00,Wunderground v.1.15,2013-05-08 08:22:00,
2013-05-08 03:27:00,58.6,48.5,29.84,South,186,0.0,3.0,69,0.00,,,0.00,Wunderground v.1.15,2013-05-08 08:27:00,
2013-05-08 03:32:00,58.6,48.5,29.84,South,186,2.0,2.0,69,0.00,,,0.00,Wunderground v.1.15,2013-05-08 08:32:00,
2013-05-08 03:37:00,58.4,48.3,29.84,South,186,0.0,3.0,69,0.00,,,0.00,Wunderground v.1.15,2013-05-08 08:37:00,
2013-05-08 03:42:00,58.3,48.2,29.84,South,186,0.0,3.0,69,0.00,,,0.00,Wunderground v.1.15,2013-05-08 08:42:00,
2013-05-08 03:47:00,58.1,48.4,29.84,South,186,0.0,3.0,70,0.00,,,0.00,Wunderground v.1.15,2013-05-08 08:47:00,
2013-05-08 03:52:00,58.0,48.3,29.84,South,186,0.0,1.0,70,0.00,,,0.00,Wunderground v.1.15,2013-05-08 08:52:00,
2013-05-08 03:57:00,57.6,48.3,29.84,South,186,0.0,3.0,71,0.00,,,0.00,Wunderground v.1.15,2013-05-08 08:57:00,
2013-05-08 04:02:00,57.5,48.2,29.85,WSW,253,0.0,3.0,71,0.00,,,0.00,Wunderground v.1.15,2013-05-08 09:02:00,
2013-05-08 04:07:00,57.5,48.2,29.85,WSW,253,0.0,3.0,71,0.00,,,0.00,Wunderground v.1.15,2013-05-08 09:07:00,
2013-05-08 04:12:00,57.3,48.0,29.85,WSW,253,0.0,2.0,71,0.00,,,0.00,Wunderground v.1.15,2013-05-08 09:12:00,
2013-05-08 04:17:00,57.3,48.0,29.85,WSW,253,0.0,2.0,71,0.00,,,0.00,Wunderground v.1.15,2013-05-08 09:17:00,
2013-05-08 04:22:00,57.3,48.0,29.85,WSW,253,0.0,0.0,71,0.00,,,0.00,Wunderground v.1.15,2013-05-08 09:22:00,
2013-05-08 04:27:00,57.3,48.0,29.85,WSW,253,0.0,2.0,71,0.00,,,0.00,Wunderground v.1.15,2013-05-08 09:27:00,
2013-05-08 04:32:00,57.2,48.3,29.85,WSW,253,0.0,4.0,72,0.00,,,0.00,Wunderground v.1.15,2013-05-08 09:32:00,
2013-05-08 04:37:00,57.2,48.3,29.85,WSW,253,3.0,4.0,72,0.00,,,0.00,Wunderground v.1.15,2013-05-08 09:37:00,
2013-05-08 04:42:00,57.2,48.3,29.85,WSW,253,3.0,3.0,72,0.00,,,0.00,Wunderground v.1.15,2013-05-08 09:42:00,
2013-05-08 04:47:00,57.3,48.3,29.86,WSW,253,0.0,3.0,72,0.00,,,0.00,Wunderground v.1.15,2013-05-08 09:47:00,
2013-05-08 04:52:00,57.3,48.3,29.86,WSW,253,3.0,4.0,72,0.00,,,0.00,Wunderground v.1.15,2013-05-08 09:52:00,
2013-05-08 04:57:00,57.5,48.2,29.86,WSW,253,2.0,4.0,71,0.00,,,0.00,Wunderground v.1.15,2013-05-08 09:57:00,
2013-05-08 05:02:00,57.6,48.3,29.86,WSW,253,1.0,4.0,71,0.00,,,0.00,Wunderground v.1.15,2013-05-08 10:02:00,
2013-05-08 05:07:00,57.6,48.6,29.86,West,262,3.0,5.0,72,0.00,,,0.00,Wunderground v.1.15,2013-05-08 10:07:00,
2013-05-08 05:12:00,57.5,48.9,29.86,West,261,4.0,5.0,73,0.00,,,0.00,Wunderground v.1.15,2013-05-08 10:12:00,
2013-05-08 05:17:00,57.3,49.1,29.86,West,261,5.0,6.0,74,0.00,,,0.00,Wunderground v.1.15,2013-05-08 10:17:00,
2013-05-08 05:22:00,57.3,49.4,29.86,West,264,2.0,4.0,75,0.00,,,0.00,Wunderground v.1.15,2013-05-08 10:22:00,
2013-05-08 05:27:00,57.3,50.1,29.86,West,275,4.0,6.0,77,0.00,,,0.00,Wunderground v.1.15,2013-05-08 10:27:00,
2013-05-08 05:32:00,57.3,50.5,29.87,WSW,255,1.0,5.0,78,0.00,,,0.00,Wunderground v.1.15,2013-05-08 10:32:00,
2013-05-08 05:37:00,57.2,50.7,29.87,West,279,2.0,7.0,79,0.00,,,0.00,Wunderground v.1.15,2013-05-08 10:37:00,
2013-05-08 05:42:00,57.2,50.7,29.87,WNW,282,5.0,6.0,79,0.00,,,0.00,Wunderground v.1.15,2013-05-08 10:42:00,
2013-05-08 05:47:00,57.2,51.4,29.86,WNW,282,3.0,7.0,81,0.00,,,0.00,Wunderground v.1.15,2013-05-08 10:47:00,
2013-05-08 05:52:00,57.2,51.4,29.86,WNW,282,4.0,5.0,81,0.00,,,0.00,Wunderground v.1.15,2013-05-08 10:52:00,
2013-05-08 05:57:00,57.2,51.8,29.86,WNW,290,3.0,7.0,82,0.00,,,0.00,Wunderground v.1.15,2013-05-08 10:57:00,
2013-05-08 06:02:00,57.2,52.1,29.86,WNW,287,3.0,5.0,83,0.00,,,0.00,Wunderground v.1.15,2013-05-08 11:02:00,
2013-05-08 06:07:00,57.0,52.2,29.86,NW,319,3.0,6.0,84,0.00,,,0.00,Wunderground v.1.15,2013-05-08 11:07:00,
2013-05-08 06:12:00,56.9,52.1,29.86,NW,318,3.0,5.0,84,0.00,,,0.00,Wunderground v.1.15,2013-05-08 11:12:00,
2013-05-08 06:17:00,56.7,52.2,29.86,NW,318,2.0,5.0,85,0.00,,,0.00,Wunderground v.1.15,2013-05-08 11:17:00,
2013-05-08 06:23:00,56.6,52.1,29.86,NW,318,5.0,6.0,85,0.00,,,0.00,Wunderground v.1.15,2013-05-08 11:23:00,
2013-05-08 06:28:00,56.5,52.4,29.86,NW,318,1.0,6.0,86,0.00,,,0.00,Wunderground v.1.15,2013-05-08 11:28:00,
2013-05-08 06:33:00,56.5,52.7,29.86,NW,310,3.0,5.0,87,0.00,,,0.00,Wunderground v.1.15,2013-05-08 11:33:00,
2013-05-08 06:38:00,56.5,53.0,29.86,NW,310,1.0,5.0,88,0.00,,,0.00,Wunderground v.1.15,2013-05-08 11:38:00,
2013-05-08 06:43:00,56.5,53.0,29.86,NW,311,2.0,4.0,88,0.00,,,0.00,Wunderground v.1.15,2013-05-08 11:43:00,
2013-05-08 06:48:00,56.5,53.0,29.86,NW,311,2.0,4.0,88,0.00,,,0.00,Wunderground v.1.15,2013-05-08 11:48:00,
2013-05-08 06:53:00,56.3,53.1,29.86,NW,311,0.0,4.0,89,0.00,,,0.00,Wunderground v.1.15,2013-05-08 11:53:00,
2013-05-08 06:58:00,56.2,53.0,29.86,NW,311,0.0,4.0,89,0.00,,,0.00,Wunderground v.1.15,2013-05-08 11:58:00,
2013-05-08 07:03:00,56.2,53.3,29.86,NW,311,4.0,4.0,90,0.00,,,0.00,Wunderground v.1.15,2013-05-08 12:03:00,
2013-05-08 07:08:00,56.0,53.1,29.86,NW,311,2.0,4.0,90,0.00,,,0.00,Wunderground v.1.15,2013-05-08 12:08:00,
2013-05-08 07:13:00,56.0,53.4,29.86,NW,311,4.0,4.0,91,0.00,,,0.00,Wunderground v.1.15,2013-05-08 12:13:00,
2013-05-08 07:18:00,55.9,53.3,29.87,NW,311,4.0,5.0,91,0.00,,,0.00,Wunderground v.1.15,2013-05-08 12:18:00,
2013-05-08 07:23:00,55.9,53.3,29.87,NW,311,0.0,2.0,91,0.00,,,0.00,Wunderground v.1.15,2013-05-08 12:23:00,
2013-05-08 07:28:00,55.7,53.1,29.87,NW,311,0.0,2.0,91,0.00,,,0.00,Wunderground v.1.15,2013-05-08 12:28:00,
2013-05-08 07:33:00,55.7,53.4,29.88,NW,311,0.0,3.0,92,0.00,,,0.00,Wunderground v.1.15,2013-05-08 12:33:00,
2013-05-08 07:38:00,55.7,53.4,29.88,NW,311,0.0,3.0,92,0.00,,,0.00,Wunderground v.1.15,2013-05-08 12:38:00,
2013-05-08 07:43:00,55.9,53.6,29.88,NW,311,2.0,4.0,92,0.00,,,0.00,Wunderground v.1.15,2013-05-08 12:43:00,
2013-05-08 07:48:00,55.7,53.4,29.88,NW,311,2.0,5.0,92,0.00,,,0.01,Wunderground v.1.15,2013-05-08 12:48:00,
2013-05-08 07:53:00,55.7,53.4,29.88,NW,311,0.0,5.0,92,0.00,,,0.01,Wunderground v.1.15,2013-05-08 12:53:00,
2013-05-08 07:58:00,55.7,53.4,29.88,NNE,14,0.0,5.0,92,0.00,,,0.01,Wunderground v.1.15,2013-05-08 12:58:00,
2013-05-08 08:03:00,55.7,53.4,29.88,NNE,15,6.0,6.0,92,0.00,,,0.01,Wunderground v.1.15,2013-05-08 13:03:00,
2013-05-08 08:08:00,55.7,53.4,29.88,NNE,27,3.0,6.0,92,0.00,,,0.01,Wunderground v.1.15,2013-05-08 13:08:00,
2013-05-08 08:13:00,55.7,53.7,29.88,NNE,26,3.0,5.0,93,0.00,,,0.01,Wunderground v.1.15,2013-05-08 13:13:00,
2013-05-08 08:18:00,56.0,54.0,29.88,NNE,24,3.0,5.0,93,0.00,,,0.01,Wunderground v.1.15,2013-05-08 13:18:00,
2013-05-08 08:23:00,56.0,54.0,29.88,NNE,26,6.0,6.0,93,0.00,,,0.01,Wunderground v.1.15,2013-05-08 13:23:00,
2013-05-08 08:28:00,56.0,54.0,29.88,NNE,28,3.0,8.0,93,0.00,,,0.01,Wunderground v.1.15,2013-05-08 13:28:00,
2013-05-08 08:33:00,56.2,54.2,29.88,NNE,30,7.0,7.0,93,0.00,,,0.01,Wunderground v.1.15,2013-05-08 13:33:00,
2013-05-08 08:38:00,56.3,54.3,29.88,NNE,27,5.0,7.0,93,0.00,,,0.01,Wunderground v.1.15,2013-05-08 13:38:00,
2013-05-08 08:43:00,56.6,54.6,29.88,NNE,27,4.0,5.0,93,0.00,,,0.01,Wunderground v.1.15,2013-05-08 13:43:00,
2013-05-08 08:49:00,56.9,54.9,29.87,ENE,57,2.0,5.0,93,0.00,,,0.01,Wunderground v.1.15,2013-05-08 13:49:00,
2013-05-08 08:54:00,57.0,55.0,29.87,NE,45,1.0,5.0,93,0.00,,,0.01,Wunderground v.1.15,2013-05-08 13:54:00,
2013-05-08 08:59:00,57.2,54.9,29.87,NE,45,1.0,5.0,92,0.00,,,0.01,Wunderground v.1.15,2013-05-08 13:59:00,
2013-05-08 09:04:00,57.3,55.0,29.88,NNE,32,4.0,6.0,92,0.00,,,0.01,Wunderground v.1.15,2013-05-08 14:04:00,
2013-05-08 09:09:00,57.5,54.9,29.88,NE,44,2.0,6.0,91,0.00,,,0.01,Wunderground v.1.15,2013-05-08 14:09:00,
2013-05-08 09:14:00,58.0,55.1,29.88,ENE,61,3.0,6.0,90,0.00,,,0.01,Wunderground v.1.15,2013-05-08 14:14:00,
2013-05-08 09:19:00,58.3,55.1,29.87,ENE,69,3.0,6.0,89,0.00,,,0.01,Wunderground v.1.15,2013-05-08 14:19:00,
2013-05-08 09:24:00,58.7,54.8,29.87,NE,45,4.0,7.0,87,0.00,,,0.01,Wunderground v.1.15,2013-05-08 14:24:00,
2013-05-08 09:29:00,59.0,54.5,29.87,NE,53,4.0,10.0,85,0.00,,,0.01,Wunderground v.1.15,2013-05-08 14:29:00,
2013-05-08 09:34:00,59.2,54.0,29.87,NE,50,3.0,10.0,83,0.00,,,0.01,Wunderground v.1.15,2013-05-08 14:34:00,
2013-05-08 09:39:00,59.5,53.7,29.87,NNE,15,5.0,10.0,81,0.00,,,0.01,Wunderground v.1.15,2013-05-08 14:39:00,
2013-05-08 09:44:00,59.6,53.8,29.87,NE,44,3.0,8.0,81,0.00,,,0.01,Wunderground v.1.15,2013-05-08 14:44:00,
2013-05-08 09:49:00,59.8,53.6,29.87,NE,42,0.0,8.0,80,0.00,,,0.01,Wunderground v.1.15,2013-05-08 14:49:00,
2013-05-08 09:54:00,59.9,53.7,29.87,NNW,333,2.0,5.0,80,0.00,,,0.01,Wunderground v.1.15,2013-05-08 14:54:00,
2013-05-08 09:59:00,59.8,54.0,29.87,WNW,300,5.0,9.0,81,0.00,,,0.01,Wunderground v.1.15,2013-05-08 14:59:00,
2013-05-08 10:04:00,59.2,54.0,29.89,NNW,327,4.0,8.0,83,0.00,,,0.01,Wunderground v.1.15,2013-05-08 15:04:00,
2013-05-08 10:09:00,58.9,54.4,29.89,NNW,342,4.0,8.0,85,0.00,,,0.01,Wunderground v.1.15,2013-05-08 15:09:00,
2013-05-08 10:14:00,58.7,54.5,29.89,NNW,342,4.0,6.0,86,0.00,,,0.01,Wunderground v.1.15,2013-05-08 15:14:00,
2013-05-08 10:19:00,58.6,54.4,29.89,NNW,342,2.0,6.0,86,0.00,,,0.01,Wunderground v.1.15,2013-05-08 15:19:00,
2013-05-08 10:24:00,58.4,54.5,29.89,NNW,342,0.0,3.0,87,0.00,,,0.01,Wunderground v.1.15,2013-05-08 15:24:00,
2013-05-08 10:29:00,58.4,54.5,29.89,NNW,342,0.0,4.0,87,0.00,,,0.01,Wunderground v.1.15,2013-05-08 15:29:00,
2013-05-08 10:34:00,58.6,54.7,29.89,NNW,342,0.0,1.0,87,0.00,,,0.01,Wunderground v.1.15,2013-05-08 15:34:00,
2013-05-08 10:39:00,58.7,54.8,29.89,NNW,342,0.0,1.0,87,0.00,,,0.01,Wunderground v.1.15,2013-05-08 15:39:00,
2013-05-08 10:44:00,58.7,54.8,29.89,NNW,343,0.0,2.0,87,0.00,,,0.01,Wunderground v.1.15,2013-05-08 15:44:00,
2013-05-08 10:49:00,58.9,54.7,29.89,NNW,348,0.0,3.0,86,0.00,,,0.01,Wunderground v.1.15,2013-05-08 15:49:00,
2013-05-08 10:54:00,58.9,54.4,29.89,NNW,348,4.0,4.0,85,0.00,,,0.01,Wunderground v.1.15,2013-05-08 15:54:00,
2013-05-08 10:59:00,59.0,54.2,29.89,North,349,5.0,5.0,84,0.00,,,0.01,Wunderground v.1.15,2013-05-08 15:59:00,
2013-05-08 11:04:00,58.9,54.1,29.89,NNE,21,4.0,6.0,84,0.00,,,0.01,Wunderground v.1.15,2013-05-08 16:04:00,
2013-05-08 11:09:00,59.0,54.2,29.89,NNE,21,2.0,6.0,84,0.00,,,0.01,Wunderground v.1.15,2013-05-08 16:09:00,
2013-05-08 11:14:00,59.5,54.3,29.89,NNE,21,0.0,4.0,83,0.00,,,0.01,Wunderground v.1.15,2013-05-08 16:14:00,
2013-05-08 11:19:00,59.9,54.1,29.89,NNE,22,0.0,4.0,81,0.00,,,0.01,Wunderground v.1.15,2013-05-08 16:19:00,
2013-05-08 11:24:00,59.9,53.4,29.89,NNE,24,4.0,6.0,79,0.00,,,0.01,Wunderground v.1.15,2013-05-08 16:24:00,
2013-05-08 11:29:00,60.1,53.6,29.89,NNE,19,4.0,7.0,79,0.00,,,0.01,Wunderground v.1.15,2013-05-08 16:29:00,
2013-05-08 11:34:00,60.4,53.5,29.89,NE,36,4.0,5.0,78,0.00,,,0.01,Wunderground v.1.15,2013-05-08 16:34:00,
2013-05-08 11:39:00,60.5,53.6,29.89,NNE,31,0.0,5.0,78,0.00,,,0.01,Wunderground v.1.15,2013-05-08 16:39:00,
2013-05-08 11:44:00,60.9,53.6,29.89,NNE,29,2.0,6.0,77,0.00,,,0.01,Wunderground v.1.15,2013-05-08 16:44:00,
2013-05-08 11:49:00,61.0,53.4,29.88,NNE,26,0.0,9.0,76,0.00,,,0.01,Wunderground v.1.15,2013-05-08 16:49:00,
2013-05-08 11:54:00,61.3,54.0,29.88,NNE,18,4.0,7.0,77,0.00,,,0.01,Wunderground v.1.15,2013-05-08 16:54:00,
2013-05-08 11:59:00,61.8,54.2,29.88,ENE,59,3.0,7.0,76,0.00,,,0.01,Wunderground v.1.15,2013-05-08 16:59:00,
2013-05-08 12:04:00,62.0,53.6,29.88,NNE,25,3.0,6.0,74,0.00,,,0.01,Wunderground v.1.15,2013-05-08 17:04:00,
2013-05-08 12:09:00,62.1,53.7,29.88,NNE,24,6.0,7.0,74,0.00,,,0.01,Wunderground v.1.15,2013-05-08 17:09:00,
2013-05-08 12:14:00,62.1,53.7,29.88,NNE,15,4.0,6.0,74,0.00,,,0.01,Wunderground v.1.15,2013-05-08 17:14:00,
2013-05-08 12:19:00,62.6,53.8,29.87,NNE,15,3.0,6.0,73,0.00,,,0.01,Wunderground v.1.15,2013-05-08 17:19:00,
2013-05-08 12:24:00,63.1,53.9,29.87,North,5,4.0,5.0,72,0.00,,,0.01,Wunderground v.1.15,2013-05-08 17:24:00,
2013-05-08 12:29:00,63.2,54.0,29.87,North,360,2.0,5.0,72,0.00,,,0.01,Wunderground v.1.15,2013-05-08 17:29:00,
2013-05-08 12:34:00,63.4,53.8,29.87,NW,313,4.0,6.0,71,0.00,,,0.01,Wunderground v.1.15,2013-05-08 17:34:00,
2013-05-08 12:39:00,63.5,53.5,29.87,NW,317,6.0,6.0,70,0.00,,,0.01,Wunderground v.1.15,2013-05-08 17:39:00,
2013-05-08 12:44:00,63.7,52.9,29.87,NNW,340,2.0,9.0,68,0.00,,,0.02,Wunderground v.1.15,2013-05-08 17:44:00,
2013-05-08 12:49:00,63.9,52.7,29.86,NNW,342,6.0,10.0,67,0.00,,,0.02,Wunderground v.1.15,2013-05-08 17:49:00,
2013-05-08 12:54:00,64.3,52.7,29.86,NNW,347,4.0,11.0,66,0.00,,,0.02,Wunderground v.1.15,2013-05-08 17:54:00,
2013-05-08 12:59:00,64.5,53.3,29.86,NNW,347,4.0,11.0,67,0.00,,,0.02,Wunderground v.1.15,2013-05-08 17:59:00,
2013-05-08 13:04:00,64.5,52.9,29.86,North,360,2.0,6.0,66,0.00,,,0.02,Wunderground v.1.15,2013-05-08 18:04:00,
2013-05-08 13:09:00,64.5,53.3,29.86,North,360,2.0,6.0,67,0.00,,,0.02,Wunderground v.1.15,2013-05-08 18:09:00,
2013-05-08 13:14:00,64.7,53.5,29.86,North,360,0.0,4.0,67,0.00,,,0.02,Wunderground v.1.15,2013-05-08 18:14:00,
2013-05-08 13:19:00,65.0,52.9,29.86,North,360,4.0,4.0,65,0.00,,,0.02,Wunderground v.1.15,2013-05-08 18:19:00,
2013-05-08 13:24:00,65.3,52.8,29.86,NNW,338,4.0,5.0,64,0.00,,,0.02,Wunderground v.1.15,2013-05-08 18:24:00,
2013-05-08 13:29:00,65.2,53.6,29.85,NNW,345,4.0,6.0,66,0.00,,,0.02,Wunderground v.1.15,2013-05-08 18:29:00,
2013-05-08 13:34:00,65.0,53.8,29.85,North,360,10.0,10.0,67,0.00,,,0.02,Wunderground v.1.15,2013-05-08 18:34:00,
2013-05-08 13:40:00,64.8,53.2,29.85,North,351,5.0,6.0,66,0.00,,,0.02,Wunderground v.1.15,2013-05-08 18:40:00,
2013-05-08 13:45:00,65.0,53.8,29.85,North,351,5.0,9.0,67,0.00,,,0.02,Wunderground v.1.15,2013-05-08 18:45:00,
2013-05-08 13:50:00,64.7,53.5,29.85,NNW,344,8.0,9.0,67,0.00,,,0.02,Wunderground v.1.15,2013-05-08 18:50:00,
2013-05-08 13:55:00,64.5,53.7,29.85,NNW,346,4.0,9.0,68,0.00,,,0.02,Wunderground v.1.15,2013-05-08 18:55:00,
2013-05-08 14:00:00,64.5,53.7,29.85,North,350,5.0,5.0,68,0.00,,,0.02,Wunderground v.1.15,2013-05-08 19:00:00,
2013-05-08 14:05:00,64.2,53.8,29.85,North,360,6.0,9.0,69,0.00,,,0.02,Wunderground v.1.15,2013-05-08 19:05:00,
2013-05-08 14:10:00,64.0,54.0,29.85,North,5,5.0,8.0,70,0.00,,,0.02,Wunderground v.1.15,2013-05-08 19:10:00,
2013-05-08 14:15:00,64.0,54.0,29.85,North,350,7.0,11.0,70,0.00,,,0.02,Wunderground v.1.15,2013-05-08 19:15:00,
2013-05-08 14:20:00,64.0,54.0,29.85,NNW,344,8.0,10.0,70,0.00,,,0.02,Wunderground v.1.15,2013-05-08 19:20:00,
2013-05-08 14:25:00,64.2,54.6,29.85,NNW,347,6.0,10.0,71,0.00,,,0.02,Wunderground v.1.15,2013-05-08 19:25:00,
2013-05-08 14:30:00,64.0,54.8,29.85,NNW,338,7.0,8.0,72,0.00,,,0.02,Wunderground v.1.15,2013-05-08 19:30:00,
2013-05-08 14:35:00,63.5,55.1,29.85,NNW,336,9.0,12.0,74,0.00,,,0.02,Wunderground v.1.15,2013-05-08 19:35:00,
2013-05-08 14:40:00,63.1,54.7,29.85,NNW,348,9.0,14.0,74,0.00,,,0.02,Wunderground v.1.15,2013-05-08 19:40:00,
2013-05-08 14:45:00,63.1,55.0,29.85,North,360,5.0,14.0,75,0.00,,,0.02,Wunderground v.1.15,2013-05-08 19:45:00,
2013-05-08 14:51:00,62.9,55.2,29.85,NNW,347,10.0,14.0,76,0.00,,,0.02,Wunderground v.1.15,2013-05-08 19:51:00,
2013-05-08 14:56:00,62.6,55.3,29.85,North,360,10.0,14.0,77,0.00,,,0.02,Wunderground v.1.15,2013-05-08 19:56:00,
2013-05-08 15:01:00,62.6,55.3,29.85,NNE,16,14.0,14.0,77,0.00,,,0.02,Wunderground v.1.15,2013-05-08 20:01:00,
2013-05-08 15:06:00,62.4,55.1,29.85,NNW,346,10.0,14.0,77,0.00,,,0.02,Wunderground v.1.15,2013-05-08 20:06:00,
2013-05-08 15:11:00,62.3,55.0,29.85,North,11,9.0,16.0,77,0.00,,,0.02,Wunderground v.1.15,2013-05-08 20:11:00,
2013-05-08 15:16:00,62.1,54.8,29.85,North,350,5.0,16.0,77,0.00,,,0.02,Wunderground v.1.15,2013-05-08 20:16:00,
2013-05-08 15:21:00,61.8,54.9,29.85,North,360,7.0,11.0,78,0.00,,,0.02,Wunderground v.1.15,2013-05-08 20:21:00,
2013-05-08 15:26:00,61.6,54.7,29.85,North,360,10.0,11.0,78,0.00,,,0.02,Wunderground v.1.15,2013-05-08 20:26:00,
2013-05-08 15:31:00,61.2,55.0,29.85,North,360,9.0,11.0,80,0.00,,,0.02,Wunderground v.1.15,2013-05-08 20:31:00,
2013-05-08 15:36:00,60.9,55.0,29.85,North,360,5.0,12.0,81,0.00,,,0.02,Wunderground v.1.15,2013-05-08 20:36:00,
2013-05-08 15:41:00,60.5,54.6,29.85,NNW,344,6.0,9.0,81,0.00,,,0.02,Wunderground v.1.15,2013-05-08 20:41:00,
2013-05-08 15:46:00,60.4,54.5,29.86,NNW,347,4.0,10.0,81,0.00,,,0.02,Wunderground v.1.15,2013-05-08 20:46:00,
2013-05-08 15:51:00,60.5,55.0,29.86,NNW,339,4.0,6.0,82,0.00,,,0.02,Wunderground v.1.15,2013-05-08 20:51:00,
2013-05-08 15:56:00,60.7,55.2,29.86,NNW,340,0.0,7.0,82,0.00,,,0.02,Wunderground v.1.15,2013-05-08 20:56:00,
2013-05-08 16:01:00,60.7,55.2,29.87,West,263,4.0,6.0,82,0.00,,,0.02,Wunderground v.1.15,2013-05-08 21:01:00,
2013-05-08 16:07:00,60.7,56.2,29.87,WNW,290,4.0,8.0,85,0.00,,,0.02,Wunderground v.1.15,2013-05-08 21:07:00,
2013-05-08 16:12:00,60.2,56.0,29.87,WNW,292,4.0,7.0,86,0.00,,,0.02,Wunderground v.1.15,2013-05-08 21:12:00,
2013-05-08 16:17:00,59.8,56.2,29.87,WNW,292,7.0,8.0,88,0.00,,,0.03,Wunderground v.1.15,2013-05-08 21:17:00,
2013-05-08 16:22:00,59.3,56.1,29.87,NW,313,4.0,6.0,89,0.00,,,0.03,Wunderground v.1.15,2013-05-08 21:22:00,
2013-05-08 16:27:00,59.2,56.3,29.87,WNW,292,7.0,7.0,90,0.06,,,0.03,Wunderground v.1.15,2013-05-08 21:27:00,
2013-05-08 16:32:00,59.0,56.4,29.87,WNW,301,3.0,6.0,91,0.06,,,0.04,Wunderground v.1.15,2013-05-08 21:32:00,
2013-05-08 16:37:00,59.0,56.7,29.87,NW,307,3.0,6.0,92,0.06,,,0.04,Wunderground v.1.15,2013-05-08 21:37:00,
2013-05-08 16:42:00,58.9,56.6,29.87,NW,308,4.0,5.0,92,0.04,,,0.04,Wunderground v.1.15,2013-05-08 21:42:00,
2013-05-08 16:47:00,58.9,56.6,29.87,NNW,338,4.0,6.0,92,0.00,,,0.04,Wunderground v.1.15,2013-05-08 21:47:00,
2013-05-08 16:52:00,58.9,56.6,29.87,North,350,6.0,7.0,92,0.00,,,0.04,Wunderground v.1.15,2013-05-08 21:52:00,
2013-05-08 16:57:00,58.9,56.9,29.87,North,351,3.0,7.0,93,0.00,,,0.04,Wunderground v.1.15,2013-05-08 21:57:00,
2013-05-08 17:02:00,58.9,56.9,29.87,North,360,5.0,9.0,93,0.00,,,0.04,Wunderground v.1.15,2013-05-08 22:02:00,
2013-05-08 17:07:00,58.7,56.7,29.87,NNE,19,4.0,9.0,93,0.00,,,0.04,Wunderground v.1.15,2013-05-08 22:07:00,
2013-05-08 17:12:00,58.6,56.3,29.87,North,360,6.0,7.0,92,0.00,,,0.05,Wunderground v.1.15,2013-05-08 22:12:00,
2013-05-08 17:17:00,58.4,56.1,29.87,North,360,3.0,10.0,92,0.00,,,0.05,Wunderground v.1.15,2013-05-08 22:17:00,
2013-05-08 17:22:00,58.3,56.3,29.87,NNW,346,4.0,6.0,93,0.00,,,0.05,Wunderground v.1.15,2013-05-08 22:22:00,
2013-05-08 17:27:00,58.3,56.3,29.87,North,360,2.0,6.0,93,0.00,,,0.05,Wunderground v.1.15,2013-05-08 22:27:00,
2013-05-08 17:32:00,58.1,56.1,29.87,NNE,15,6.0,6.0,93,0.04,,,0.06,Wunderground v.1.15,2013-05-08 22:32:00,
2013-05-08 17:37:00,58.1,56.1,29.87,NNE,22,6.0,9.0,93,0.04,,,0.06,Wunderground v.1.15,2013-05-08 22:37:00,
2013-05-08 17:42:00,58.1,56.1,29.87,NNE,22,10.0,10.0,93,0.04,,,0.06,Wunderground v.1.15,2013-05-08 22:42:00,
2013-05-08 17:47:00,58.1,56.4,29.86,North,5,6.0,10.0,94,0.04,,,0.07,Wunderground v.1.15,2013-05-08 22:47:00,
2013-05-08 17:52:00,58.0,56.3,29.86,NNE,15,5.0,10.0,94,0.04,,,0.07,Wunderground v.1.15,2013-05-08 22:52:00,
2013-05-08 17:57:00,57.8,56.1,29.86,NE,39,6.0,10.0,94,0.04,,,0.07,Wunderground v.1.15,2013-05-08 22:57:00,
2013-05-08 18:02:00,57.8,56.1,29.86,NE,37,6.0,9.0,94,0.04,,,0.08,Wunderground v.1.15,2013-05-08 23:02:00,
2013-05-08 18:07:00,58.0,56.3,29.86,NE,36,1.0,9.0,94,0.04,,,0.08,Wunderground v.1.15,2013-05-08 23:07:00,
2013-05-08 18:12:00,58.1,56.4,29.86,North,11,9.0,9.0,94,0.04,,,0.08,Wunderground v.1.15,2013-05-08 23:12:00,
2013-05-08 18:17:00,58.1,56.4,29.86,NNE,33,7.0,9.0,94,0.00,,,0.08,Wunderground v.1.15,2013-05-08 23:17:00,
2013-05-08 18:22:00,58.3,56.6,29.86,NNE,28,5.0,8.0,94,0.00,,,0.09,Wunderground v.1.15,2013-05-08 23:22:00,
2013-05-08 18:27:00,58.3,56.6,29.86,NNE,13,4.0,10.0,94,0.00,,,0.09,Wunderground v.1.15,2013-05-08 23:27:00,
2013-05-08 18:32:00,58.3,56.6,29.86,NNE,23,0.0,8.0,94,0.00,,,0.09,Wunderground v.1.15,2013-05-08 23:32:00,
2013-05-08 18:37:00,58.3,56.6,29.86,NNE,19,7.0,10.0,94,0.00,,,0.09,Wunderground v.1.15,2013-05-08 23:37:00,
2013-05-08 18:43:00,58.1,56.4,29.86,NNE,22,5.0,12.0,94,0.00,,,0.09,Wunderground v.1.15,2013-05-08 23:43:00,
2013-05-08 18:48:00,58.1,56.4,29.86,NNE,25,7.0,12.0,94,0.00,,,0.09,Wunderground v.1.15,2013-05-08 23:48:00,
2013-05-08 18:53:00,58.1,56.4,29.86,NNE,30,4.0,7.0,94,0.00,,,0.09,Wunderground v.1.15,2013-05-08 23:53:00,
2013-05-08 18:58:00,58.1,56.4,29.86,NE,52,6.0,10.0,94,0.00,,,0.09,Wunderground v.1.15,2013-05-08 23:58:00,
2013-05-08 19:03:00,58.1,56.4,29.86,North,360,8.0,10.0,94,0.00,,,0.09,Wunderground v.1.15,2013-05-09 00:03:00,
2013-05-08 19:08:00,58.1,56.4,29.86,North,360,6.0,10.0,94,0.00,,,0.09,Wunderground v.1.15,2013-05-09 00:08:00,
2013-05-08 19:13:00,58.1,56.4,29.86,North,11,5.0,7.0,94,0.00,,,0.09,Wunderground v.1.15,2013-05-09 00:13:00,
2013-05-08 19:18:00,58.0,56.3,29.86,NE,34,11.0,11.0,94,0.00,,,0.09,Wunderground v.1.15,2013-05-09 00:18:00,
2013-05-08 19:23:00,58.0,56.3,29.86,NE,37,6.0,10.0,94,0.00,,,0.09,Wunderground v.1.15,2013-05-09 00:23:00,
2013-05-08 19:28:00,58.0,56.3,29.86,NNE,15,6.0,10.0,94,0.00,,,0.09,Wunderground v.1.15,2013-05-09 00:28:00,
2013-05-08 19:33:00,58.0,56.3,29.86,NNE,12,5.0,10.0,94,0.00,,,0.09,Wunderground v.1.15,2013-05-09 00:33:00,
2013-05-08 19:38:00,58.0,56.6,29.86,NNE,12,2.0,10.0,95,0.00,,,0.09,Wunderground v.1.15,2013-05-09 00:38:00,
2013-05-08 19:43:00,58.0,56.6,29.86,NNE,12,4.0,5.0,95,0.00,,,0.09,Wunderground v.1.15,2013-05-09 00:43:00,
2013-05-08 19:48:00,58.0,56.6,29.86,NNE,27,4.0,9.0,95,0.00,,,0.09,Wunderground v.1.15,2013-05-09 00:48:00,
2013-05-08 19:53:00,57.8,56.4,29.86,NNE,24,4.0,7.0,95,0.00,,,0.09,Wunderground v.1.15,2013-05-09 00:53:00,
2013-05-08 19:58:00,57.8,56.4,29.86,NNE,22,4.0,7.0,95,0.00,,,0.09,Wunderground v.1.15,2013-05-09 00:58:00,
2013-05-08 20:03:00,57.8,56.4,29.86,NNE,17,3.0,6.0,95,0.00,,,0.09,Wunderground v.1.15,2013-05-09 01:03:00,
2013-05-08 20:08:00,57.8,56.4,29.86,NNE,26,4.0,7.0,95,0.00,,,0.09,Wunderground v.1.15,2013-05-09 01:08:00,
2013-05-08 20:13:00,57.8,56.4,29.86,NNE,25,3.0,8.0,95,0.00,,,0.09,Wunderground v.1.15,2013-05-09 01:13:00,
2013-05-08 20:18:00,57.6,56.2,29.86,North,360,4.0,8.0,95,0.00,,,0.09,Wunderground v.1.15,2013-05-09 01:18:00,
2013-05-08 20:23:00,57.6,56.2,29.86,NNE,24,0.0,5.0,95,0.00,,,0.09,Wunderground v.1.15,2013-05-09 01:23:00,
2013-05-08 20:28:00,57.6,56.5,29.86,NNE,32,2.0,5.0,96,0.00,,,0.09,Wunderground v.1.15,2013-05-09 01:28:00,
2013-05-08 20:33:00,57.6,56.5,29.86,NE,35,0.0,6.0,96,0.00,,,0.09,Wunderground v.1.15,2013-05-09 01:33:00,
2013-05-08 20:38:00,57.6,56.5,29.86,ENE,77,0.0,6.0,96,0.00,,,0.09,Wunderground v.1.15,2013-05-09 01:38:00,
2013-05-08 20:43:00,57.6,56.5,29.86,ENE,78,0.0,2.0,96,0.00,,,0.09,Wunderground v.1.15,2013-05-09 01:43:00,
2013-05-08 20:48:00,57.6,56.5,29.86,NE,47,3.0,5.0,96,0.00,,,0.09,Wunderground v.1.15,2013-05-09 01:48:00,
2013-05-08 20:53:00,57.6,56.5,29.86,ENE,69,0.0,5.0,96,0.00,,,0.09,Wunderground v.1.15,2013-05-09 01:53:00,
2013-05-08 20:58:00,57.6,56.5,29.86,NNE,29,0.0,5.0,96,0.00,,,0.09,Wunderground v.1.15,2013-05-09 01:58:00,
2013-05-08 21:03:00,57.5,56.4,29.86,ENE,58,1.0,4.0,96,0.00,,,0.09,Wunderground v.1.15,2013-05-09 02:03:00,
2013-05-08 21:08:00,57.5,56.4,29.86,NNE,15,7.0,7.0,96,0.00,,,0.09,Wunderground v.1.15,2013-05-09 02:08:00,
2013-05-08 21:13:00,57.5,56.4,29.86,NNE,15,0.0,1.0,96,0.00,,,0.09,Wunderground v.1.15,2013-05-09 02:13:00,
2013-05-08 21:18:00,57.5,56.4,29.86,ENE,76,0.0,4.0,96,0.00,,,0.09,Wunderground v.1.15,2013-05-09 02:18:00,
2013-05-08 21:23:00,57.5,56.4,29.86,ENE,76,2.0,3.0,96,0.00,,,0.09,Wunderground v.1.15,2013-05-09 02:23:00,
2013-05-08 21:28:00,57.3,56.2,29.86,ENE,65,0.0,4.0,96,0.00,,,0.09,Wunderground v.1.15,2013-05-09 02:28:00,
2013-05-08 21:33:00,57.3,56.2,29.87,ENE,65,0.0,3.0,96,0.00,,,0.09,Wunderground v.1.15,2013-05-09 02:33:00,
2013-05-08 21:38:00,57.3,56.2,29.87,ENE,65,0.0,3.0,96,0.00,,,0.09,Wunderground v.1.15,2013-05-09 02:38:00,
2013-05-08 21:43:00,57.3,56.5,29.87,ENE,65,0.0,1.0,97,0.00,,,0.09,Wunderground v.1.15,2013-05-09 02:43:00,
2013-05-08 21:48:00,57.3,56.2,29.87,ENE,65,2.0,3.0,96,0.00,,,0.09,Wunderground v.1.15,2013-05-09 02:48:00,
2013-05-08 21:54:00,57.3,56.5,29.87,ENE,69,0.0,3.0,97,0.00,,,0.09,Wunderground v.1.15,2013-05-09 02:54:00,
2013-05-08 21:59:00,57.3,56.5,29.87,ENE,69,0.0,3.0,97,0.00,,,0.09,Wunderground v.1.15,2013-05-09 02:59:00,
2013-05-08 22:04:00,57.3,56.5,29.87,ENE,57,0.0,4.0,97,0.00,,,0.09,Wunderground v.1.15,2013-05-09 03:04:00,
2013-05-08 22:09:00,57.3,56.5,29.87,NE,56,0.0,4.0,97,0.00,,,0.09,Wunderground v.1.15,2013-05-09 03:09:00,
2013-05-08 22:14:00,57.3,56.5,29.87,NE,54,0.0,4.0,97,0.00,,,0.09,Wunderground v.1.15,2013-05-09 03:14:00,
2013-05-08 22:19:00,57.2,56.4,29.87,NE,50,0.0,5.0,97,0.00,,,0.09,Wunderground v.1.15,2013-05-09 03:19:00,
2013-05-08 22:24:00,57.2,56.4,29.87,NE,49,0.0,3.0,97,0.00,,,0.09,Wunderground v.1.15,2013-05-09 03:24:00,
2013-05-08 22:29:00,57.2,56.4,29.87,NE,37,0.0,5.0,97,0.00,,,0.09,Wunderground v.1.15,2013-05-09 03:29:00,
2013-05-08 22:34:00,57.2,56.4,29.87,NE,38,0.0,1.0,97,0.00,,,0.09,Wunderground v.1.15,2013-05-09 03:34:00,
2013-05-08 22:39:00,57.2,56.4,29.87,ENE,59,0.0,5.0,97,0.00,,,0.09,Wunderground v.1.15,2013-05-09 03:39:00,
2013-05-08 22:44:00,57.2,56.4,29.87,ENE,58,0.0,2.0,97,0.00,,,0.09,Wunderground v.1.15,2013-05-09 03:44:00,
2013-05-08 22:49:00,57.2,56.4,29.86,ENE,57,0.0,4.0,97,0.00,,,0.09,Wunderground v.1.15,2013-05-09 03:49:00,
2013-05-08 22:54:00,57.0,56.2,29.86,ENE,57,0.0,0.0,97,0.00,,,0.09,Wunderground v.1.15,2013-05-09 03:54:00,
2013-05-08 22:59:00,57.0,56.2,29.86,ENE,57,3.0,3.0,97,0.00,,,0.09,Wunderground v.1.15,2013-05-09 03:59:00,
2013-05-08 23:01:00,57.0,56.2,29.86,ENE,57,0.0,0.0,97,0.00,,,0.09,Wunderground v.1.15,2013-05-09 04:01:00,
2013-05-08 23:04:00,57.0,56.2,29.86,NE,37,2.0,5.0,97,0.00,,,0.09,Wunderground v.1.15,2013-05-09 04:04:00,
2013-05-08 23:06:00,57.0,56.2,29.86,NE,38,1.0,5.0,97,0.00,,,0.09,Wunderground v.1.15,2013-05-09 04:06:00,
2013-05-08 23:07:00,57.0,56.2,29.86,NE,37,0.0,5.0,97,0.00,,,0.09,Wunderground v.1.15,2013-05-09 04:07:00,
2013-05-08 23:12:00,57.0,56.2,29.86,NE,38,4.0,4.0,97,0.00,,,0.09,Wunderground v.1.15,2013-05-09 04:12:00,
2013-05-08 23:17:00,56.9,56.1,29.85,NNE,15,6.0,7.0,97,0.00,,,0.09,Wunderground v.1.15,2013-05-09 04:17:00,
2013-05-08 23:19:00,56.9,56.1,29.85,NNE,17,4.0,7.0,97,0.00,,,0.09,Wunderground v.1.15,2013-05-09 04:19:00,
2013-05-08 23:24:00,56.9,56.1,29.85,NNE,33,4.0,5.0,97,0.00,,,0.09,Wunderground v.1.15,2013-05-09 04:24:00,
2013-05-08 23:29:00,56.9,56.1,29.85,NNE,24,3.0,6.0,97,0.00,,,0.09,Wunderground v.1.15,2013-05-09 04:29:00,
2013-05-08 23:34:00,56.9,56.1,29.85,North,9,2.0,6.0,97,0.00,,,0.09,Wunderground v.1.15,2013-05-09 04:34:00,
2013-05-08 23:39:00,56.9,56.3,29.85,North,9,0.0,6.0,98,0.00,,,0.09,Wunderground v.1.15,2013-05-09 04:39:00,
2013-05-08 23:44:00,56.9,56.3,29.85,North,9,0.0,2.0,98,0.00,,,0.09,Wunderground v.1.15,2013-05-09 04:44:00,
2013-05-08 23:49:00,56.9,56.3,29.85,North,9,0.0,2.0,98,0.00,,,0.09,Wunderground v.1.15,2013-05-09 04:49:00,
2013-05-08 23:54:00,56.9,56.3,29.85,North,9,0.0,3.0,98,0.00,,,0.09,Wunderground v.1.15,2013-05-09 04:54:00,
2013-05-08 23:59:00,56.9,56.3,29.85,North,9,0.0,3.0,98,0.00,,,0.09,Wunderground v.1.15,2013-05-09 04:59:00,